Time,TemperatureF,DewpointF,PressureIn,WindDirection,WindDirectionDegrees,WindSpeedMPH,WindSpeedGustMPH,Humidity,HourlyPrecipIn,Conditions,Clouds,dailyrainin,SoftwareType,DateUTC
2013-04-19 00:00:00,39.0,33.0,-100.00,North,-999,-999.0,-999.0,79,-99.99,,,0.00,,2013-04-19 07:00:00,
2013-04-19 00:52:00,39.0,33.0,-100.00,North,-999,-999.0,-999.0,79,-99.99,,,0.00,,2013-04-19 07:52:00,
2013-04-19 01:00:00,38.0,34.0,-100.00,SE,145,10.0,14.0,86,-99.99,,,-99.99,,2013-04-19 08:00:00,
2013-04-19 02:00:00,38.0,34.0,-100.00,SSE,167,13.0,16.0,88,-99.99,,,-99.99,,2013-04-19 09:00:00,
2013-04-19 03:00:00,38.0,34.0,-100.00,SSW,194,14.0,19.0,86,-99.99,,,-99.99,,2013-04-19 10:00:00,
2013-04-19 04:00:00,37.0,33.0,-100.00,SSW,207,12.0,16.0,85,-99.99,,,-99.99,,2013-04-19 11:00:00,
2013-04-19 05:00:00,36.0,33.0,-100.00,ESE,106,7.0,14.0,87,-99.99,,,-99.99,,2013-04-19 12:00:00,
2013-04-19 06:00:00,36.0,33.0,-100.00,SSE,165,4.0,9.0,88,-99.99,,,-99.99,,2013-04-19 13:00:00,
2013-04-19 07:00:00,36.0,33.0,-100.00,SE,138,2.0,8.0,90,-99.99,,,-99.99,,2013-04-19 14:00:00,
2013-04-19 08:00:00,36.0,34.0,-100.00,South,191,6.0,11.0,90,-99.99,,,0.00,,2013-04-19 15:00:00,
2013-04-19 09:00:00,39.0,34.0,-100.00,SW,224,8.0,13.0,83,-99.99,,,0.00,,2013-04-19 16:00:00,
2013-04-19 10:00:00,41.0,32.0,-100.00,South,179,6.0,10.0,72,-99.99,,,0.00,,2013-04-19 17:00:00,
2013-04-19 11:00:00,41.0,31.0,-100.00,South,185,5.0,8.0,68,-99.99,,,0.00,,2013-04-19 18:00:00,
2013-04-19 12:00:00,44.0,32.0,-100.00,WNW,299,4.0,6.0,63,-99.99,,,0.01,,2013-04-19 19:00:00,
2013-04-19 13:00:00,45.0,34.0,-100.00,East,93,3.0,5.0,65,-99.99,,,0.01,,2013-04-19 20:00:00,
2013-04-19 14:00:00,47.0,34.0,-100.00,SW,216,3.0,6.0,59,-99.99,,,0.01,,2013-04-19 21:00:00,
2013-04-19 15:00:00,46.0,31.0,-100.00,ESE,111,3.0,6.0,56,-99.99,,,0.00,,2013-04-19 22:00:00,
2013-04-19 16:00:00,46.0,31.0,-100.00,SSE,161,3.0,6.0,54,-99.99,,,0.00,,2013-04-19 23:00:00,
2013-04-19 17:00:00,44.0,30.0,-100.00,South,183,3.0,5.0,57,-99.99,,,0.00,,2013-04-20 00:00:00,
2013-04-19 18:00:00,43.0,29.0,-100.00,South,169,3.0,5.0,59,-99.99,,,-99.99,,2013-04-20 01:00:00,
2013-04-19 19:00:00,43.0,30.0,-100.00,SSE,160,3.0,7.0,61,-99.99,,,-99.99,,2013-04-20 02:00:00,
2013-04-19 20:00:00,38.0,28.0,-100.00,South,177,5.0,9.0,67,-99.99,,,0.00,,2013-04-20 03:00:00,
2013-04-19 21:00:00,37.0,31.0,-100.00,South,173,10.0,14.0,77,-99.99,,,-99.99,,2013-04-20 04:00:00,
2013-04-19 22:00:00,38.0,32.0,-100.00,SSW,193,8.0,13.0,80,-99.99,,,-99.99,,2013-04-20 05:00:00,
2013-04-19 23:00:00,37.0,28.0,-100.00,South,171,8.0,13.0,71,-99.99,,,0.00,,2013-04-20 06:00:00,